Weather observations for the past three days for
General Wm J Fox Airfield
Imperial (Metric)
Date Time (pdt) Wind (mph) Vis. (mi.) Weather Sky Cond. Temperature (ºF) Relative Humidity Wind Chill (°F) Heat Index (°F) Pressure Precipitation (in)
Air Dwpt 6 hour altimeter (in) sea level (mb) 1 hr 3 hr 6 hr
Max. Min.
22 02:56 SW 8 10.00 Fair CLR 84.9 37.9 19% 82 29.92 1009.9
22 01:56 W 10 10.00 Fair CLR 82.9 34 17% 80 29.92 1009.9
22 00:56 NW 7 10.00 Fair CLR 81 33.1 18% 79 29.92 1010.2
21 23:56 W 8 10.00 Fair CLR 82.9 33.1 17% 80 29.93 1010.4
21 22:56 Calm 10.00 Fair CLR 82 37 102 82 20% 80 29.94 1010.9
21 21:56 W 8 10.00 Fair CLR 84.9 41 21% 82 29.95 1011.2
21 20:56 SW 15 10.00 Fair CLR 88 43 21% 85 29.93 1010.7
21 19:56 W 18 10.00 Fair CLR 91 43 19% 87 29.91 1010.3
21 18:56 W 22 10.00 Fair and Breezy CLR 93.9 46 19% 90 29.9 1009.9
21 17:56 W 22 G 30 10.00 Fair and Breezy CLR 98.1 48 18% 95 29.88 1009.1
21 16:56 SW 21 G 30 10.00 Fair and Breezy CLR 102 41 105.1 99 12% 97 29.89 1009.5
21 15:56 W 22 G 32 10.00 Fair and Breezy CLR 102.9 41 12% 98 29.9 1009.7
21 14:56 SW 21 G 28 10.00 Fair and Breezy CLR 104 39.9 11% 99 29.91 1010.0
21 13:56 SW 15 G 26 10.00 Fair CLR 104 39.9 11% 99 29.93 1010.6
21 12:56 W 16 G 25 10.00 Fair CLR 105.1 42.1 12% 100 29.93 1010.5
21 11:56 W 7 10.00 Fair CLR 102 39.9 12% 97 29.95 1011.1
21 10:56 Calm 10.00 Fair CLR 99 37.9 99 73 12% 94 29.96 1011.8
21 09:56 S 3 10.00 Fair CLR 93.9 35.1 13% 89 29.97 1012.1
21 08:56 E 6 10.00 Fair CLR 89.1 41 19% 85 29.98 1012.4
21 07:56 SE 3 10.00 Fair CLR 80.1 37 21% 79 29.97 1012.3
21 06:56 Calm 10.00 Fair CLR 75.9 42.1 30% 77 29.96 1011.9
21 05:56 Calm 10.00 Fair CLR 77 37.9 24% 77 29.95 1011.4
21 04:56 Calm 10.00 Fair CLR 75 37 84 73.9 25% 77 29.94 1011.1
21 03:56 Calm 10.00 Fair CLR 79 37.9 23% 78 29.94 1011.0
21 02:56 NW 6 10.00 Fair CLR 77 37.9 24% 77 29.95 1011.3
21 01:56 W 7 10.00 Fair CLR 80.1 30.9 17% 78 29.95 1011.4
21 00:56 NW 7 10.00 Fair CLR 82.9 34 17% 80 29.96 1011.5
20 23:56 W 8 10.00 Fair CLR 82.9 30 15% 80 29.97 1011.8
20 22:56 W 6 10.00 Fair CLR 82.9 36 102 82.9 19% 80 29.97 1012.0
20 21:56 SW 12 10.00 Fair CLR 87.1 39 18% 84 29.97 1012.1
20 20:56 W 14 10.00 Fair CLR 89.1 35.1 15% 85 29.96 1011.8
20 19:56 W 14 10.00 Fair CLR 91.9 37.9 15% 88 29.95 1011.5
20 18:56 W 17 10.00 Fair CLR 97 37 12% 92 29.93 1011.2
20 17:56 SW 15 G 25 10.00 Fair CLR 99 32 9% 94 29.93 1010.9
20 16:56 SW 20 G 28 10.00 Fair CLR 102 27 105.1 97 7% 96 29.94 1011.3
20 15:56 SW 18 G 31 10.00 Fair CLR 102 30.9 8% 96 29.95 1011.6
20 14:56 W 17 10.00 Fair CLR 102.9 30 8% 97 29.97 1012.1
20 13:56 W 16 G 28 10.00 Fair CLR 102.9 30 8% 97 29.98 1012.5
20 12:56 SW 12 G 20 10.00 Fair CLR 102 28.9 8% 96 29.99 1013.0
20 11:56 Calm 10.00 Fair CLR 99 27 8% 94 30.01 1013.3
20 10:56 SW 5 10.00 Fair CLR 97 21.9 97 66.9 7% 92 30.02 1013.7
20 09:56 Calm 10.00 Fair CLR 91 30.9 12% 87 30.03 1014.3
20 08:56 Calm 10.00 Fair CLR 87.1 30.9 13% 83 30.04 1014.9
20 07:56 Calm 10.00 Fair CLR 81 30 16% 79 30.05 1015.1
20 06:56 Calm 10.00 Fair CLR 72 36 27% 30.03 1014.6
20 05:56 E 5 10.00 Fair CLR 68 34 28% 30.02 1014.2
20 04:56 NW 9 10.00 Fair CLR 68 33.1 82 68 27% 30 1013.6
20 03:56 W 9 10.00 Fair CLR 71.1 36 28% 30 1013.4
20 02:56 NW 5 10.00 Fair CLR 70 33.1 26% 30 1013.5
20 01:56 NW 9 10.00 Fair CLR 72 30 21% 30.01 1013.6
20 00:56 NW 8 10.00 Fair CLR 75 30.9 20% 76 30.02 1013.8
19 23:56 W 9 8.00 Fair CLR 80.1 32 17% 78 30.02 1013.8
19 22:56 W 13 6.00 Fair with Haze CLR 82 28.9 99 81 14% 80 30.02 1013.9
19 21:56 SW 13 10.00 Fair CLR 84 34 17% 81 30.02 1014.0
19 20:56 SW 8 10.00 Fair CLR 84.9 37.9 19% 82 30.02 1014.1
19 19:56 W 12 10.00 Fair CLR 89.1 19 7% 85 30.01 1013.8
19 18:56 W 22 10.00 Fair and Breezy CLR 93.9 23 8% 89 29.98 1012.8
19 17:56 W 21 10.00 Fair and Breezy CLR 96.1 39 14% 92 29.98 1013.0
19 16:56 W 18 10.00 Fair CLR 98.1 39.9 102.9 97 13% 93 29.98 1012.9
19 15:56 W 22 G 37 10.00 Fair and Breezy CLR 100.9 39 12% 96 29.98 1012.9
19 14:56 W 22 G 30 10.00 Fair and Breezy CLR 102 34 9% 97 30 1013.3
19 13:56 SW 22 G 30 10.00 Fair and Breezy CLR 102 30.9 8% 96 30.01 1013.7
19 12:56 W 14 G 25 10.00 Fair CLR 102 27 7% 96 30.02 1013.7
19 11:56 SW 7 G 20 10.00 Fair CLR 100.9 19.9 5% 95 30.04 1014.2
19 10:56 Vrbl 6 10.00 Fair CLR 97 25 98.1 64.9 7% 92 30.04 1014.4
19 09:56 Calm 10.00 Fair CLR 93 35.1 13% 89 30.05 1015.0
19 08:56 Calm 10.00 Fair CLR 86 39 19% 83 30.06 1015.4
19 07:56 Calm 10.00 Fair CLR 79 41 26% 78 30.06 1015.5
19 06:56 Calm 10.00 Fair CLR 71.1 37 29% 30.05 1015.2
19 05:56 SW 3 10.00 Fair CLR 68 37.9 33% 30.04 1014.8
19 04:56 Calm 10.00 Fair CLR 70 37.9 82.9 66.9 31% 30.03 1014.5
19 03:56 Calm 10.00 Fair CLR 68 37 32% 30.02 1014.2
Date Time (pdt) Wind (mph) Vis. (mi.) Weather Sky Cond. Air Dwpt Max. Min. Relative Humidity Wind Chill (°F) Heat Index (°F) altimeter (in) sea level (mb) 1 hr 3 hr 6 hr
6 hour
Temperature (ºF) Pressure Precipitation (in)